sat.trackr.live / text

‹ back to catalog

STARLINK-34524

NORAD 64431 · 2025-129V

PAYLOAD ACTIVE UNKNOWN

§ Identity

Operator
Country
US
Launch date
2025-06-17
Launch site
AFWTR
Launch vehicle
Mass (kg)
RCS (m²)

Purposes: comms

External: N2YO · Heavens-Above · Gunter

§ Orbital elements

Epoch: 2026-09-20T12:39:55.907424Z

Period
94.09 min
Inclination
70.0010°
Eccentricity
0.0003100
Mean motion
15.30410691 rev/d
Perigee alt
472.5 km
Apogee alt
476.7 km
Semi-major
6,852.7 km
B*
-3.4068e-5
RAAN
300.7492°
Arg perigee
271.6986°
Mean anomaly
88.3835°
Rev number
7,047

§ Raw data

STARLINK-345241 64431U 25129V   26263.52773041 -.00001133  00000+0 -34068-4 0  99992 64431  70.0010 300.7492 0003100 271.6986  88.3835 15.30410691 70479

JSON: /api/v1/satellites/64431 · /tle

For live sub-satellite position, see the globe view (requires WebGL).

§ Visibility from observer

Set your observer location to see the next 7 days of passes ≥ 10°. The values pass through the URL so the page stays shareable.

No JS? Fill the form by hand. The geolocation button needs JavaScript.